Location: Fernhill
(41.0167°S, 175.6333°E)
Time: 14:23:25
(UTC+00:00)

Meteor 2-6 Rocket - Pass Details

Date: 27 February 2026
Orbit: 804 x 913 km, 81.3° (Epoch: 7 March)

Event Time Altitude Azimuth Distance (km) Brightness Sun altitude
Exits shadow 07:48:37 10° 54° (NE) 2,598 6.1 -9.0°
Reaches altitude 10° 07:48:45 10° 56° (NE) 2,566 6.1 -9.0°
Maximum altitude 07:52:32 18° 96° (E) 2,081 5.7 -9.7°
Drops below altitude 10° 07:56:22 10° 136° (SE) 2,620 6.5 -10.3°
Sets 07:59:40 0° 154° (SSE) 3,579 7.4 -10.9°
